Theta_e
298 298 298 298 298 298 297 297 296 297 298 300 301 304 305 307 306 306 307 308 309 311 312 312 314 316 317 319 321 323 328 332 334 330 329 329 332 332 333 336 337 337 337
295 295 295 295 296 297 297 296 295 295 296 298 300 301 301 305 304 304 305 305 307 309 309 310 311 311 312 315 317 319 321 330 331 326 326 319 325 329 331 335 334 335 338
292 293 293 292 292 293 294 294 294 294 294 296 299 300 301 301 301 301 302 303 304 305 307 307 307 308 309 308 309 314 318 320 328 332 325 316 314 324 328 329 332 335 336
292 292 292 292 293 293 294 295 293 293 294 295 295 296 293 293 296 298 300 301 302 303 303 304 305 306 307 308 309 311 311 315 318 325 330 333 326 320 318 326 331 334 331
292 291 293 293 293 293 294 292 295 293 293 293 295 293 292 293 295 296 297 298 299 300 300 301 301 302 303 305 306 308 310 312 312 317 322 327 328 327 319 318 322 328 330
292 292 292 292 292 292 291 293 292 292 292 292 293 291 291 291 291 292 292 293 295 296 297 297 298 299 300 301 302 304 306 309 312 313 316 317 322 321 320 317 320 322 328
290 290 289 290 290 290 291 291 290 289 291 292 291 291 291 291 290 289 290 291 291 292 293 294 295 296 297 299 301 302 303 306 308 311 313 315 318 325 321 322 322 322 326
289 288 289 289 289 289 289 290 290 290 290 291 290 291 291 290 290 290 289 290 290 291 292 292 293 294 295 297 298 300 302 305 307 309 311 313 317 321 325 320 319 319 322
288 288 288 288 288 289 288 288 288 288 289 290 290 290 290 290 289 289 289 289 290 290 291 291 291 292 293 294 295 296 298 299 300 304 306 312 315 321 321 326 322 317 314
287 287 288 288 288 288 288 288 288 288 288 289 289 289 289 289 289 288 287 288 288 289 289 290 290 291 291 292 292 293 295 296 298 300 302 307 314 319 320 324 325 320 317
287 286 287 288 288 288 287 287 287 287 287 288 288 287 287 288 288 286 286 287 287 287 287 288 289 289 290 290 290 291 294 294 296 299 301 304 311 316 319 321 321 320 319
286 286 286 287 286 286 286 286 286 286 287 287 287 287 287 287 286 286 286 286 285 286 286 287 288 288 289 289 289 290 291 291 292 294 295 298 298 306 319 320 319 319 319
285 285 285 285 285 285 285 285 286 286 286 286 285 285 285 285 285 285 285 285 285 285 285 285 286 287 287 288 288 288 288 288 289 289 291 292 292 291 293 296 316 320 319
284 284 284 284 284 285 285 284 284 285 285 285 284 283 283 283 284 285 284 284 284 284 283 284 285 286 286 287 287 287 287 287 287 287 288 288 288 288 289 293 297 304 317
282 283 283 283 283 283 284 284 284 284 284 283 282 282 283 282 283 283 283 283 283 283 283 283 283 285 285 285 286 286 286 285 285 287 286 287 287 288 288 291 291 292 297
282 282 282 282 283 283 283 284 284 284 284 282 281 281 281 281 281 281 281 282 281 282 282 281 281 283 284 285 284 285 284 285 284 284 284 285 286 286 286 288 289 288 287
282 282 282 283 283 284 284 283 283 284 283 282 281 281 280 279 279 280 280 280 280 280 280 280 280 281 283 283 283 283 284 283 283 282 283 283 284 284 284 285 286 287 286
282 282 282 282 283 284 285 285 284 283 282 281 280 280 279 279 279 279 278 278 279 278 278 279 279 280 282 282 282 281 283 283 282 281 283 283 283 284 283 282 282 283 283
282 282 282 282 282 282 284 284 283 281 281 280 279 279 278 277 277 276 277 278 278 278 278 278 278 279 279 281 281 280 281 281 281 281 281 282 282 283 284 282 280 280 281
281 280 280 280 280 281 282 281 281 280 279 279 279 280 279 277 276 277 278 279 278 277 278 277 277 277 278 279 280 279 279 277 279 279 280 280 280 281 281 280 279 279 279
280 281 280 278 278 280 280 279 279 278 280 281 280 280 279 278 277 278 278 278 277 276 275 275 276 276 277 278 279 278 277 276 276 277 277 279 279 279 280 280 278 278 280
279 280 279 279 280 282 281 279 278 280 281 281 280 279 278 278 278 277 277 277 276 275 274 274 275 276 277 276 276 277 276 275 275 274 275 276 276 277 277 277 277 277 277
279 279 279 279 279 280 281 279 280 281 281 280 278 278 278 278 278 277 276 276 276 275 274 274 273 274 276 276 275 275 275 273 272 274 273 273 274 274 274 275 275 274 274
278 279 278 277 277 279 279 279 280 281 280 278 278 278 278 276 277 277 277 276 275 275 273 272 273 273 273 275 275 275 274 272 271 271 271 271 272 271 271 272 272 272 272
277 278 277 277 276 277 278 279 280 279 278 278 277 277 277 276 275 276 276 275 276 275 274 274 273 272 272 273 274 273 273 272 270 270 270 269 269 269 269 269 269 270 270
276 276 276 275 275 276 276 277 279 279 278 276 276 276 276 275 275 274 274 275 275 275 275 275 275 274 274 273 273 272 272 271 270 269 267 267 267 267 267 267 267 268 268
Wind_Speed
12 16 17 17 18 18 19 19 18 16 13 11 9 6 7 6 7 8 11 10 8 8 6 4 5 4 4 5 6 6 8 6 5 6 8 12 7 9 11 8 9 12 12
14 16 18 18 17 17 18 18 17 16 12 9 9 5 7 5 6 8 9 11 11 9 7 6 5 6 5 7 7 6 4 5 7 5 3 4 10 13 12 8 10 15 10
12 12 14 16 15 16 16 15 15 15 13 13 7 8 6 9 8 10 9 11 12 11 9 7 6 6 4 5 7 8 9 6 4 13 5 4 6 8 8 15 12 15 11
9 9 10 12 13 12 12 14 13 14 12 13 11 13 8 9 10 10 9 9 11 11 10 10 10 9 7 7 6 6 7 7 9 6 11 12 4 5 4 6 12 15 14
5 5 6 6 6 8 10 10 12 12 12 12 13 9 12 10 10 9 11 10 9 11 11 12 11 10 8 9 9 9 9 6 8 9 5 7 9 9 4 5 6 10 11
5 7 8 10 11 12 12 11 11 12 13 14 15 15 12 10 9 12 10 9 10 9 11 13 10 10 10 10 9 10 10 9 8 8 11 10 8 9 9 9 8 10 11
4 7 10 11 12 14 15 13 12 12 12 14 14 14 12 11 9 10 10 13 10 9 11 13 12 9 11 12 11 11 11 10 9 11 8 10 12 12 8 11 12 12 11
5 5 6 7 9 11 12 13 13 14 14 12 11 11 10 7 8 10 10 9 9 9 13 12 12 13 13 12 12 9 8 9 9 13 12 9 12 12 11 10 9 12 12
2 6 7 8 9 11 12 12 12 12 13 14 11 11 11 12 11 12 11 9 10 10 12 13 13 13 13 13 13 9 12 9 10 11 12 12 10 12 12 12 11 10 13
1 4 6 7 8 9 10 11 12 11 11 11 10 10 10 11 12 11 12 12 12 13 13 14 14 14 13 13 12 10 11 12 9 9 12 14 11 12 11 11 12 11 13
4 4 5 7 7 9 10 10 11 11 11 11 11 11 11 12 11 12 12 13 14 15 15 14 13 14 14 14 13 12 12 13 12 10 11 12 14 10 11 10 10 10 11
5 5 6 7 8 9 9 9 10 10 11 10 9 10 10 10 11 12 13 14 15 15 15 14 14 15 15 14 14 13 13 13 14 14 12 12 12 14 13 11 12 10 11
5 5 5 6 7 7 8 9 9 9 9 10 9 10 11 11 12 12 13 13 13 14 15 15 15 15 16 15 14 13 13 13 13 14 13 14 14 14 12 13 11 10 10
6 5 5 6 6 7 8 9 9 9 9 9 10 10 11 12 12 12 12 13 13 14 15 16 15 15 17 16 16 15 15 13 14 14 13 15 15 16 15 12 11 12 11
6 5 5 5 6 7 8 8 8 9 8 9 10 10 11 10 11 12 13 13 13 14 16 16 16 15 16 14 16 15 16 16 16 15 15 14 20 23 18 10 11 12 10
8 7 6 5 6 7 7 8 8 8 8 10 11 12 12 12 13 13 13 14 14 15 16 17 17 16 13 28 26 19 14 17 17 18 16 16 22 23 23 21 12 11 12
11 9 7 5 6 6 6 8 8 8 10 11 12 12 12 13 13 13 14 14 15 13 15 16 16 17 18 31 28 24 14 14 16 18 18 16 16 24 19 21 19 15 19
12 9 7 6 5 5 6 5 8 9 10 11 11 12 12 12 12 12 13 13 12 13 13 14 15 15 16 30 29 24 14 13 17 19 20 19 20 24 21 17 17 16 16
11 8 7 7 6 7 6 7 7 9 10 10 10 11 11 11 11 11 12 11 11 12 13 13 15 16 17 32 32 22 15 16 17 16 17 20 20 32 33 19 18 15 16
11 10 8 7 8 5 7 9 8 9 10 9 10 10 11 10 9 11 12 11 12 12 10 13 14 20 16 29 31 24 12 14 12 15 16 29 26 32 32 18 17 16 15
13 11 9 8 6 7 7 9 8 8 7 8 9 10 9 10 11 11 11 11 12 11 11 13 12 15 18 19 30 31 15 12 12 12 13 14 30 29 31 29 18 17 15
13 11 9 8 7 7 9 8 8 6 7 8 8 9 10 8 9 11 11 11 11 12 12 12 12 12 14 25 26 28 26 23 12 14 12 14 28 28 29 22 31 28 17
11 9 9 9 7 7 6 8 6 6 7 7 7 8 9 9 10 12 11 10 11 11 11 10 11 11 11 11 24 26 26 24 13 11 17 23 24 25 19 30 31 21 14
11 10 10 9 8 6 7 6 6 6 6 7 7 7 8 9 10 8 9 9 9 9 10 10 10 10 11 11 11 11 12 15 14 14 12 14 16 17 16 16 17 14 14
10 10 9 9 9 7 6 6 5 5 6 6 6 6 6 8 7 8 9 8 10 12 9 9 10 11 11 13 19 18 13 12 14 12 11 14 15 15 14 14 15 14 14
11 10 10 10 8 7 7 6 6 5 6 6 5 5 5 5 5 4 6 15 15 16 17 18 14 9 18 22 23 23 25 24 20 12 13 13 13 14 14 15 14 14 16
Wind_Direction
47 40 35 32 29 30 29 26 23 20 19 17 6 3 18 10 20 14 9 8 7 6 5 352 340 336 299 290 285 277 276 245 230 224 217 240 259 227 221 213 207 231 224
38 33 29 26 27 26 25 25 24 18 22 27 21 5 334 1 359 355 355 2 355 356 354 357 349 335 314 297 283 269 272 248 201 222 236 162 209 234 230 217 210 222 215
43 35 31 29 25 25 24 20 20 17 16 11 29 31 19 11 353 348 351 353 351 348 356 353 346 329 301 293 296 290 263 248 232 203 174 169 220 232 216 224 221 220 211
48 42 33 35 30 25 18 32 17 16 15 15 22 37 41 19 345 333 337 340 348 343 354 352 353 341 324 304 294 286 283 273 250 267 224 222 162 210 201 230 224 220 214
67 72 68 61 47 42 38 23 29 19 19 11 34 22 33 27 330 328 337 351 345 343 353 350 345 342 328 318 312 303 282 266 265 257 266 249 227 223 222 243 219 230 230
26 24 18 14 18 17 14 27 33 20 11 22 22 27 11 357 339 348 342 347 350 341 352 340 346 338 325 320 315 304 294 288 268 262 268 257 246 221 221 234 241 231 217
26 19 16 15 14 16 16 8 13 21 21 19 25 11 5 356 355 347 356 350 339 341 341 341 340 337 325 320 311 304 296 283 275 269 255 261 262 259 247 240 238 246 235
42 23 20 23 19 14 17 13 12 8 10 16 14 23 2 3 1 8 358 345 337 334 341 339 341 337 331 328 324 310 305 307 288 267 257 256 257 261 241 231 243 243 241
29 16 14 20 11 13 16 16 7 12 8 4 3 12 10 3 1 4 353 345 338 343 348 349 346 342 339 334 330 318 313 308 300 286 287 265 252 249 254 234 226 237 243
87 8 14 15 19 16 22 17 11 12 11 6 8 6 11 15 15 12 6 358 356 357 357 355 354 347 345 339 332 322 313 309 304 297 287 290 251 255 248 237 231 234 244
129 33 16 22 24 22 25 19 13 11 7 13 10 13 10 22 16 18 10 6 5 3 4 359 357 355 351 346 338 334 333 324 317 311 311 296 298 252 250 237 231 234 236
116 68 42 20 19 21 25 22 17 12 6 12 20 16 19 23 29 23 18 17 16 12 7 4 359 5 357 353 353 348 345 348 352 349 347 340 340 336 269 239 231 228 234
121 71 61 40 28 31 31 28 22 17 14 21 21 23 20 26 29 30 23 26 23 18 12 10 7 6 3 0 357 1 3 2 8 3 1 5 1 354 342 339 294 234 233
129 101 72 60 48 41 42 42 33 23 21 26 28 25 27 22 29 26 27 29 24 21 16 17 13 7 8 5 5 9 11 12 14 11 11 12 8 356 342 327 321 318 254
136 118 100 76 66 57 51 47 42 33 29 36 34 32 31 26 32 28 28 28 27 24 24 20 18 11 16 10 9 11 17 20 17 17 16 16 11 5 357 338 340 343 320
145 128 112 100 77 64 59 52 43 35 38 42 38 32 32 31 33 28 29 30 28 28 29 27 21 17 18 15 15 14 18 21 20 18 12 12 12 8 8 1 0 17 358
146 135 126 110 79 75 76 61 49 40 42 41 39 38 30 31 29 28 29 29 28 23 28 26 22 20 21 17 17 14 17 20 20 16 14 13 12 10 6 6 7 6 13
138 135 127 109 85 83 62 80 49 51 50 49 44 38 33 32 30 29 28 26 26 30 25 21 24 21 15 20 17 13 13 17 20 19 15 14 11 13 10 8 9 8 2
128 124 118 116 104 90 91 89 73 58 57 52 48 44 40 32 27 25 26 28 26 31 31 22 18 20 17 20 19 17 13 15 19 16 14 17 15 15 14 12 11 8 3
126 128 125 113 93 80 88 86 76 67 58 49 49 46 46 36 22 24 28 28 31 32 30 27 26 18 19 18 22 24 14 15 15 14 14 18 19 19 17 16 9 7 355
134 133 123 107 97 98 92 86 84 74 68 67 60 53 43 47 33 34 33 32 34 28 28 30 27 23 18 17 21 22 20 16 16 14 11 13 16 18 20 19 18 6 348
136 132 119 106 100 101 99 90 77 74 72 65 67 57 50 44 38 37 37 36 31 32 31 28 27 22 20 20 19 22 26 20 21 21 11 9 15 17 18 20 16 11 7
134 131 121 111 95 89 95 94 76 85 81 74 62 65 57 47 43 43 38 39 38 35 31 30 27 23 17 18 18 19 22 22 22 18 17 16 18 17 16 15 14 12 13
132 130 127 116 104 93 85 79 78 88 88 80 74 65 62 56 48 50 45 40 38 39 39 32 32 27 25 22 18 20 19 21 20 17 18 17 20 26 15 11 12 11 10
131 131 123 118 106 100 87 70 70 102 96 86 76 69 65 58 65 54 40 51 42 39 34 42 31 30 29 26 27 26 23 22 20 17 23 20 15 13 12 12 8 8 6
133 125 120 118 110 100 83 68 74 88 100 91 77 65 64 52 56 52 71 46 43 37 45 36 50 39 42 34 31 34 35 34 31 33 29 24 19 17 10 5 3 6 3